| time (UTC) | temp F | wind direction | speed MPH | gust MPH | rain 1hr in | rain 24hr in | rain mn in | humidity % | barometer mb |
| 20260506024531 | 67 | 61 | 2.0 | 3.0 | 0.00 | 0.00 | 0.00 | 61 | 1013.5 |
| 20260506023035 | 69 | 55 | 1.0 | 4.0 | 0.00 | 0.00 | 0.00 | 57 | 1013.5 |
| 20260506021606 | 71 | 6 | 0.0 | 3.0 | 0.00 | 0.00 | 0.00 | 53 | 1013.4 |
| 20260506014530 | 73 | 20 | 0.0 | 5.0 | 0.00 | 0.00 | 0.00 | 52 | 1013.3 |
| 20260506013029 | 74 | 4 | 0.0 | 5.0 | 0.00 | 0.00 | 0.00 | 51 | 1013.3 |
| 20260506010028 | 76 | 329 | 1.0 | 6.0 | 0.00 | 0.00 | 0.00 | 49 | 1013.2 |
| 20260506004530 | 77 | 328 | 0.0 | 6.0 | 0.00 | 0.00 | 0.00 | 48 | 1013.2 |
| 20260506003031 | 77 | 326 | 1.0 | 7.0 | 0.00 | 0.00 | 0.00 | 47 | 1013.1 |
| 20260506000033 | 78 | 336 | 1.0 | 8.0 | 0.00 | 0.00 | 0.00 | 46 | 1013.2 |
| 20260505234529 | 78 | 332 | 1.0 | 8.0 | 0.00 | 0.00 | 0.00 | 47 | 1013.2 |
| 20260505233033 | 78 | 335 | 1.0 | 8.0 | 0.00 | 0.00 | 0.00 | 47 | 1013.4 |
| 20260505230144 | 77 | 330 | 1.0 | 7.0 | 0.00 | 0.00 | 0.00 | 49 | 1013.5 |
| 20260505224531 | 77 | 318 | 2.0 | 8.0 | 0.00 | 0.00 | 0.00 | 49 | 1013.6 |
| 20260505223029 | 76 | 323 | 2.0 | 7.0 | 0.00 | 0.00 | 0.00 | 49 | 1013.7 |
| 20260505221610 | 76 | 319 | 2.0 | 9.0 | 0.00 | 0.00 | 0.00 | 51 | 1013.8 |
| 20260505220146 | 76 | 314 | 2.0 | 8.0 | 0.00 | 0.00 | 0.00 | 51 | 1014.0 |
| 20260505214606 | 76 | 314 | 2.0 | 9.0 | 0.00 | 0.00 | 0.00 | 51 | 1014.0 |
| 20260505213033 | 75 | 318 | 2.0 | 8.0 | 0.00 | 0.00 | 0.00 | 50 | 1014.1 |
| 20260505211530 | 75 | 315 | 1.0 | 7.0 | 0.00 | 0.00 | 0.00 | 50 | 1014.3 |
| 20260505210030 | 74 | 329 | 1.0 | 7.0 | 0.00 | 0.00 | 0.00 | 50 | 1014.5 |
| 20260505204531 | 75 | 310 | 2.0 | 9.0 | 0.00 | 0.00 | 0.00 | 50 | 1014.5 |
| 20260505201528 | 76 | 319 | 1.0 | 7.0 | 0.00 | 0.00 | 0.00 | 51 | 1014.7 |
| 20260505200031 | 75 | 314 | 2.0 | 9.0 | 0.00 | 0.00 | 0.00 | 50 | 1014.8 |
| 20260505194529 | 76 | 345 | 2.0 | 7.0 | 0.00 | 0.00 | 0.00 | 50 | 1014.8 |
| 20260505193031 | 0 | 0 | 0.0 | 0.0 | 0.00 | 0.00 | 0.00 | 100 | |
| 20260505191536 | 74 | 320 | 1.0 | 6.0 | 0.00 | 0.00 | 0.00 | 54 | 1015.0 |
| 20260505190105 | 71 | 313 | 2.0 | 9.0 | 0.00 | 0.00 | 0.00 | 57 | 1015.1 |
| 20260505184613 | 70 | 334 | 1.0 | 8.0 | 0.00 | 0.00 | 0.00 | 58 | 1015.1 |
| 20260505183030 | 70 | 316 | 2.0 | 8.0 | 0.00 | 0.00 | 0.00 | 57 | 1015.2 |
| 20260505181529 | 71 | 333 | 0.0 | 7.0 | 0.00 | 0.00 | 0.00 | 57 | 1015.2 |
| 20260505180032 | 70 | 336 | 1.0 | 7.0 | 0.00 | 0.00 | 0.00 | 59 | 1015.1 |
| 20260505174529 | 69 | 342 | 1.0 | 6.0 | 0.00 | 0.00 | 0.00 | 61 | 1015.2 |
| 20260505173031 | 67 | 348 | 1.0 | 5.0 | 0.00 | 0.00 | 0.00 | 66 | 1015.1 |
| 20260505171529 | 65 | 3 | 0.0 | 6.0 | 0.00 | 0.00 | 0.00 | 68 | 1015.1 |
| 20260505170034 | 65 | 7 | 0.0 | 6.0 | 0.00 | 0.00 | 0.00 | 69 | 1015.1 |
| 20260505164530 | 64 | 40 | 1.0 | 4.0 | 0.00 | 0.00 | 0.00 | 72 | 1015.1 |
| 20260505163031 | 64 | 35 | 1.0 | 4.0 | 0.00 | 0.00 | 0.00 | 74 | 1015.1 |
| 20260505161538 | 63 | 28 | 0.0 | 3.0 | 0.00 | 0.00 | 0.00 | 80 | 1015.2 |
| 20260505153105 | 56 | 7 | 0.0 | 4.0 | 0.00 | 0.00 | 0.00 | 91 | 1014.8 |
| 20260505151531 | 55 | 48 | 0.0 | 2.0 | 0.00 | 0.00 | 0.00 | 92 | 1014.7 |
| 20260505123033 | 48 | 225 | 0.0 | 0.0 | 0.00 | 0.00 | 0.00 | 91 | 1013.1 |
| 20260505121529 | 48 | 277 | 0.0 | 1.0 | 0.00 | 0.00 | 0.00 | 91 | 1013.0 |
| 20260505114646 | 49 | 292 | 0.0 | 0.0 | 0.00 | 0.00 | 0.00 | 91 | 1012.9 |
| 20260505113029 | 49 | 288 | 0.0 | 0.0 | 0.00 | 0.00 | 0.00 | 90 | 1012.8 |
| 20260505111531 | 49 | 225 | 0.0 | 0.0 | 0.00 | 0.00 | 0.00 | 90 | 1012.7 |
| 20260505101608 | 51 | 225 | 0.0 | 0.0 | 0.00 | 0.00 | 0.00 | 89 | 1012.4 |
| 20260505100038 | 51 | 225 | 0.0 | 0.0 | 0.00 | 0.00 | 0.00 | 88 | 1012.3 |
| 20260505093032 | 52 | 186 | 0.0 | 1.0 | 0.00 | 0.00 | 0.00 | 87 | 1012.2 |
| 20260505091534 | 52 | 94 | 0.0 | 2.0 | 0.00 | 0.00 | 0.00 | 86 | 1012.1 |
| 20260505090030 | 53 | 157 | 0.0 | 0.0 | 0.00 | 0.00 | 0.00 | 84 | 1012.0 |
| 20260505084532 | 54 | 157 | 0.0 | 0.0 | 0.00 | 0.00 | 0.00 | 82 | 1012.1 |
| 20260505083030 | 54 | 158 | 0.0 | 3.0 | 0.00 | 0.00 | 0.00 | 82 | 1012.1 |
| 20260505081529 | 55 | 337 | 0.0 | 4.0 | 0.00 | 0.00 | 0.00 | 82 | 1012.1 |
| 20260505080032 | 54 | 73 | 0.0 | 0.0 | 0.00 | 0.00 | 0.00 | 82 | 1012.0 |
| 20260505074531 | 54 | 243 | 0.0 | 0.0 | 0.00 | 0.00 | 0.00 | 80 | 1011.9 |
| 20260505073106 | 55 | 214 | 0.0 | 0.0 | 0.00 | 0.00 | 0.00 | 79 | 1011.9 |
| 20260505070112 | 56 | 277 | 0.0 | 3.0 | 0.00 | 0.00 | 0.00 | 76 | 1011.6 |
| 20260505063037 | 57 | 182 | 3.0 | 5.0 | 0.00 | 0.00 | 0.00 | 72 | 1011.6 |
| 20260505061533 | 58 | 189 | 2.0 | 4.0 | 0.00 | 0.00 | 0.00 | 70 | 1011.6 |
| 20260505060035 | 59 | 176 | 1.0 | 3.0 | 0.00 | 0.00 | 0.00 | 68 | 1011.6 |
| 20260505054536 | 59 | 163 | 1.0 | 4.0 | 0.00 | 0.00 | 0.00 | 66 | 1011.5 |
| 20260505053031 | 60 | 221 | 1.0 | 4.0 | 0.00 | 0.00 | 0.00 | 63 | 1011.3 |
| 20260505041531 | 65 | 232 | 1.0 | 6.0 | 0.00 | 0.00 | 0.00 | 54 | 1010.8 |
| 20260505040048 | 65 | 258 | 2.0 | 7.0 | 0.00 | 0.00 | 0.00 | 53 | 1010.6 |
| 20260505034536 | 65 | 265 | 2.0 | 6.0 | 0.00 | 0.00 | 0.00 | 53 | 1010.4 |
| 20260505031534 | 68 | 264 | 2.0 | 7.0 | 0.00 | 0.00 | 0.00 | 47 | 1010.1 |